Location: Cheching
(60.0667°N, 164.2167°W)
Time: 10:50:23
(UTC+00:00)

NOAA 19 - Pass Details

Date: 24 January 2021
Orbit: 840 x 862 km, 99.2° (Epoch: 26 February)

Event Time Altitude Azimuth Distance (km) Brightness Sun altitude
Rises 04:34:14 0° 167° (SSE) 3,429 8.4 -12.3°
Reaches altitude 10° 04:36:37 10° 169° (S) 2,494 7.7 -12.6°
Maximum altitude 04:42:09 70° 254° (WSW) 912 5.6 -13.3°
Drops below altitude 10° 04:47:42 10° 338° (NNW) 2,498 7.7 -13.9°
Sets 04:50:05 0° 341° (NNW) 3,434 8.4 -14.2°
